Location: Brotuna
(46.2000°N, 22.6000°E)
Time: 08:58:22
(UTC+00:00)

Abrixas rocket - Pass Details

Date: 09 April 2020
Orbit: 344 x 351 km, 48.4° (Epoch: 06 June)

Event Time Altitude Azimuth Distance (km) Brightness Sun altitude
Rises 18:24:31 0° 287° (WNW) 2,167 7.8 -13.1°
Reaches altitude 10° 18:26:33 10° 286° (WNW) 1,324 6.2 -13.4°
Maximum altitude 18:29:30 74° 201° (SSW) 373 1.9 -13.8°
Enters shadow 18:30:40 33° 122° (ESE) 625 2.6 -14.0°
